Location: Carrières
(48.9495°N, 2.0407°E)
Time: 11:03:36
(UTC+00:00)

Transit 2A - Pass Details

Date: 24 April 2024
Orbit: 594 x 958 km, 66.7° (Epoch: 24 May)

Event Time Altitude Azimuth Distance (km) Brightness Sun altitude
Rises 14:34:00 0° 319° (NW) 3,279 9.4 40.9°
Reaches altitude 10° 14:36:27 10° 312° (NW) 2,404 8.9 40.5°
Maximum altitude 14:41:35 39° 245° (WSW) 1,275 10.6 39.8°
Drops below altitude 10° 14:47:07 10° 178° (S) 2,594 9.2 39.0°
Sets 14:49:52 0° 171° (S) 3,569 9.7 38.6°
